Change the Weather History Date:

Friday, January 3, 2014

  Actual Average Record
Temperature  
Mean Temperature 32 °F 16 °F  
Max Temperature 47 °F 29 °F 56 °F (1962)
Min Temperature 17 °F 4 °F -28 °F (1950)
Degree Days  
Heating Degree Days 33 49  
Month to date heating degree days 120 147  
Since 1 July heating degree days 3707 3597  
Cooling Degree Days 0 0  
Month to date cooling degree days 0 0  
Year to date cooling degree days 0 0  
Moisture  
Dew Point 25 °F    
Average Humidity 59    
Maximum Humidity 81    
Minimum Humidity 36    
Precipitation  
Precipitation 0.02 in 0.01 in 0.15 in (1970)
Month to date precipitation 0.03 0.03  
Year to date precipitation 0.03 0.03  
Snow  
Snow 0.00 in - - ()
Month to date snowfall 0.0  
Since 1 July snowfall 0.0  
Snow Depth 0.00 in    
Sea Level Pressure  
Sea Level Pressure 29.61 in    
Wind  
Wind Speed 18 mph (WNW)    
Max Wind Speed 38 mph    
Max Gust Speed 49 mph    
T = Trace of Precipitation, MM = Missing Value Source: NWS Daily Summary

Daily Weather History Graph

Daily Weather History Graph

Search for Another Location

Airport or City:

Trip Planner

Search our weather history database for the weather conditions in past years. The results will help you decide how hot, cold, wet, or windy it might be!

Date:

Astronomy

Jan. 03, 2014 Rise Set
Actual Time 7:54 AM MST 4:30 PM MST
Civil Twilight 7:19 AM MST 5:05 PM MST
Nautical Twilight 6:40 AM MST 5:44 PM MST
Astronomical Twilight 6:03 AM MST 6:21 PM MST
Moon 9:10 AM MST (1/3) 7:57 PM MST (1/3)
Length of Visible Light 9h 46m
Length of Day
8h 35m
Waxing Crescent, 8% of the Moon is Illuminated
Jan 3
Waxing Crescent
Jan 7
First Quarter
Jan 15
Full
Jan 23
Last Quarter
Jan 30
New

Hourly Weather History & Observations

Time (MST) Temp. Windchill Dew Point Humidity Pressure Visibility Wind Dir Wind Speed Gust Speed Precip Events Conditions
12:48 AM 44.1 °F 36.5 °F 30.0 °F 58% 29.61 in - WSW 17.3 mph 23.0 mph N/A   Unknown
1:07 AM 43.0 °F 35.7 °F 30.0 °F 60% 29.53 in - WNW 15.0 mph - N/A   Unknown
1:48 AM 42.1 °F 33.6 °F 30.0 °F 62% 29.56 in - NW 18.4 mph - N/A   Unknown
2:48 AM 43.0 °F 36.0 °F 30.0 °F 60% 29.53 in - WSW 13.8 mph - N/A   Unknown
3:48 AM 43.0 °F 36.8 °F 30.0 °F 60% 29.50 in - West 11.5 mph 21.9 mph N/A   Unknown
4:48 AM 44.1 °F 37.7 °F 30.0 °F 58% 29.46 in - West 12.7 mph 20.7 mph N/A   Unknown
5:48 AM 43.0 °F 37.2 °F 30.0 °F 60% 29.44 in - WSW 10.4 mph - N/A   Unknown
6:48 AM 41.0 °F 34.3 °F 30.0 °F 65% 29.41 in - WNW 11.5 mph - N/A   Unknown
7:05 AM 43.0 °F 36.4 °F 30.0 °F 60% 29.35 in - West 12.7 mph 23.0 mph N/A   Unknown
7:48 AM 43.0 °F 36.8 °F 30.0 °F 60% 29.37 in - WSW 11.5 mph - N/A   Unknown
8:48 AM 43.0 °F 36.8 °F 30.0 °F 60% 29.35 in - West 11.5 mph - N/A   Unknown
9:48 AM 42.1 °F 35.2 °F 30.0 °F 62% 29.38 in - West 12.7 mph - N/A   Unknown
10:48 AM 46.0 °F 39.0 °F 30.9 °F 56% 29.39 in - West 17.3 mph - N/A   Unknown
11:48 AM 44.1 °F 35.7 °F 30.0 °F 58% 29.39 in - WNW 20.7 mph - N/A   Unknown
12:48 PM 44.1 °F 34.4 °F 27.0 °F 51% 29.39 in - WNW 27.6 mph 36.8 mph N/A   Unknown
1:48 PM 42.8 °F 32.9 °F 28.4 °F 57% 29.37 in - West 26.5 mph 39.1 mph N/A   Unknown
2:48 PM 33.1 °F 17.8 °F 25.0 °F 72% 29.52 in - NNW 36.8 mph 48.3 mph N/A   Unknown
4:48 PM 28.0 °F 11.3 °F 21.9 °F 78% 29.76 in - NNW 34.5 mph 41.4 mph N/A   Unknown
5:48 PM 27.0 °F 11.6 °F 21.0 °F 78% 29.85 in - NNW 26.5 mph 40.3 mph 0.02 in   Unknown
6:48 PM 28.0 °F 14.9 °F 19.9 °F 72% 29.90 in - NNW 19.6 mph - N/A   Unknown
7:48 PM 25.0 °F 11.7 °F 17.1 °F 72% 29.96 in - North 17.3 mph - N/A   Unknown
8:48 PM 23.0 °F 9.2 °F 12.0 °F 63% 30.01 in - NNW 17.3 mph - N/A   Unknown
9:48 PM 21.0 °F 8.6 °F 12.9 °F 71% 30.06 in - NNW 12.7 mph - N/A   Unknown
10:48 PM 19.0 °F 8.2 °F 10.0 °F 68% 30.08 in - NNW 9.2 mph - N/A   Unknown
11:48 PM 17.1 °F 3.0 °F 8.1 °F 68% 30.09 in - NNW 13.8 mph - N/A   Unknown